Home   Weather   Borough of Clarion   Past weeks
Flag for USA

Past Weather in Borough of Clarion, Pennsylvania, USA — Yesterday and Last 2 Weeks

Now
31 °F

Sunny.


Feels Like: 26 °F
Forecast: 62 / 27 °F
Wind: 5 mph from Southeast

Location: Du Bois-Jefferson County Airport

Current Time: Oct 19, 2019 at 8:45:54 am

Latest Report: Oct 19, 2019 at 7:53 am


Visibility: 10 mi

Pressure: 30.10 "Hg

Humidity: 92%

Dew Point: 29 °F

Location of Borough of ClarionLocation

Past Weather in Borough of Clarion — Graph

°F

Borough of Clarion Temperature Yesterday

Maximum temperature yesterday: 51 °F (at 2:53 pm)
Minimum temperature yesterday: 36 °F (at 5:18 am)
Average temperature yesterday: 41 °F

High & Low Weather Summary for the Past Weeks

 TemperatureHumidityPressure
High68 °F (Oct 10, 3:53 pm)97% (Oct 7, 5:53 am)30.38 "Hg (Oct 7, 5:53 am)
Low28 °F (Oct 19, 6:42 am)23% (Oct 11, 1:53 pm)29.54 "Hg (Oct 17, 12:19 am)
Average49 °F77%30.06 "Hg
* Reported Oct 4 7:37 am — Oct 19 7:00 am, Borough of Clarion. Weather by CustomWeather, © 2019

Note: Actual official high and low records may vary slightly from our data, if they occured in-between our weather recording intervals... More about our weather records

Advertising

Borough of Clarion Weather History for the Previous 24 Hours

Scroll right to see more
 ConditionsComfort  
Time TempWeatherWind HumidityBarometerVisibility
7:00 am
Sat, Oct 19
30 °FIce fog.No wind92%30.04 "Hg3 mi
6:42 am28 °FIce fog.5 mph96%30.04 "Hg1 mi
6:09 am30 °FIce fog.5 mph96%30.05 "Hg1 mi
5:53 am30 °FIce fog.6 mph92%30.08 "Hg0 mi
5:33 am32 °FFog.3 mph96%30.05 "Hg1 mi
5:23 am32 °FIce fog.No wind96%30.05 "Hg2 mi
4:53 am33 °FFog.No wind92%30.08 "Hg4 mi
3:53 am34 °FClear.No wind88%30.06 "Hg9 mi
2:53 am33 °FClear.3 mph92%30.06 "Hg7 mi
1:53 am34 °FClear.6 mph92%30.06 "Hg9 mi
12:53 am38 °FClear.3 mph90%30.07 "Hg10 mi
11:53 pm
Fri, Oct 18
37 °FClear.No wind89%30.09 "Hg10 mi
10:53 pm38 °FClear.No wind90%30.08 "Hg10 mi
9:53 pm38 °FClear.No wind90%30.08 "Hg10 mi
8:53 pm39 °FClear.3 mph86%30.06 "Hg10 mi
7:53 pm42 °FClear.5 mph76%30.05 "Hg10 mi
6:53 pm44 °FClear.6 mph73%30.04 "Hg10 mi
5:53 pm47 °FSunny.8 mph69%30.04 "Hg10 mi
4:53 pm50 °FPassing clouds.10 mph57%30.02 "Hg10 mi
3:53 pm51 °FScattered clouds.9 mph56%30.03 "Hg10 mi
2:53 pm51 °FPassing clouds.13 mph56%30.02 "Hg10 mi
1:53 pm50 °FPartly sunny.8 mph59%30.02 "Hg10 mi
12:53 pm46 °FPartly sunny.10 mph66%30.04 "Hg10 mi
12:00 pm45 °FOvercast.9 mph68%30.02 "Hg10 mi
11:00 am44 °FCloudy.6 mph76%30.00 "Hg10 mi
9:53 am42 °FOvercast.8 mph82%30.02 "Hg10 mi
8:53 am41 °FPartly sunny.8 mph86%30.00 "Hg10 mi
Weather by CustomWeather, © 2019

See weather overview